Regional Weather Roundup
Issued by NWS

Home | Current Version | Previous Version | Graphics & Text | Print | Product List | Glossary Off
Versions: 1 2 3 4 5 6 7 8 9 10 11 12 13 14 15 16 17 18 19 20 21 22 23 24 25 26 27 28 29 30 31 32 33 34 35 36 37 38 39 40 41 42 43 44 45 46 47 48 49 50

686
ASUS44 KLIX 252210
RWRLA
LOUISIANA WEATHER ROUNDUP
NATIONAL WEATHER SERVICE NEW ORLEANS LA
500 PM CDT SAT OCT 25 2014

NOTE: "FAIR" INDICATES FEW OR NO CLOUDS BELOW 12,000 FEET WITH NO
      SIGNIFICANT WEATHER AND/OR OBSTRUCTIONS TO VISIBILITY.
      SKY/WX - SKY CONDITION AND SIGNIFICANT WEATHER.
      TMP - AIR TEMPERATURE.    DP   - DEWPOINT TEMPERATURE.
      RH  - RELATIVE HUMIDITY.  PRES - PRESSURE.
      HX  - HEAT INDEX.         WCI  - WIND CHILL INDEX.

*  THESE STATIONS ARE NOT NWS OR FAA STATIONS AND ARE NOT UNDER
   NWS QUALITY CONTROL.

LAZ040-048-061>063-065-066-069-252300-
SOUTHEAST LOUISIANA

CITY           SKY/WX    TMP DP  RH WIND       PRES   REMARKS
N.O. AUDUBON     N/A     78  58  50 MISG        N/A
N.O. INTL ARPT SUNNY     79  55  43 NW8       30.07F
N.O. LAKEFRONT SUNNY     75  58  55 W8        30.07F
N.O. DOWNTOWN* FAIR      79  52  38 W5        30.07F
SLIDELL        SUNNY     77  59  53 SW6       30.05F
BATON ROUGE    SUNNY     80  53  39 W7        30.08S
BOOTHVILLE     SUNNY     73  56  54 CALM      30.08S
BELLE CHASSE   SUNNY     79  52  38 VRB3      30.06F
BOGALUSA*        N/A     82  55  39 N7        30.07S
NEW ROADS*     FAIR      79  52  38 NW3       30.08F
GONZALES*      FAIR      80  56  43 CALM      30.07S
HAMMOND*       SUNNY     82  50  32 NW8       30.08S
HOUMA*         NOT AVBL
PORT FOURCHON* CLEAR     75  57  53 CALM      30.11S

$$

LAZ041-044-053-054-252300-
SOUTHWEST LOUISIANA

CITY           SKY/WX    TMP DP  RH WIND       PRES   REMARKS
LAKE CHARLES   SUNNY     81  50  33 CALM      30.09F
LAFAYETTE      SUNNY     82  45  27 NW5       30.09S
PATTERSON      SUNNY     79  52  38 N6        30.12S
SALT POINT       N/A     75  62  64 SW3       30.08F
NEW IBERIA     SUNNY     83  49  30 NW3       30.09F
CHENAULT AIRPK NOT AVBL

$$

LAZ027-028-252300-
CENTRAL LOUISIANA

CITY           SKY/WX    TMP DP  RH WIND       PRES   REMARKS
FORT POLK      SUNNY     82  49  32 W6        30.09F
ALEXANDRIA INT SUNNY     82  52  35 W3        30.07S
ALEXANDRIA     SUNNY     80  53  39 NW3       30.09S

$$

LAZ001-002-252300-
NORTHWEST LOUISIANA

CITY           SKY/WX    TMP DP  RH WIND       PRES   REMARKS
SHREVEPORT     SUNNY     83  63  50 SW6       30.06F
BARKSDALE AFB  SUNNY     84  62  46 W3        30.07S
DTN SHREVEPORT SUNNY     83  61  47 SW8       30.07S

$$

LAZ014-016-252300-
NORTHEAST LOUISIANA

CITY           SKY/WX    TMP DP  RH WIND       PRES   REMARKS
MONROE         SUNNY     82  59  45 W8        30.07S
TALLULAH       SUNNY     81  59  47 W6        30.06S

$$




USA.gov is the U.S. government's official web portal to all federal, state and local government web resources and services.